TES

Satellite information

Favourite Embed

Satellite Type and Status

PAYLOADIN ORBIT

Key statistics

Satellite TES at a glance.

Uptime

8819

Days in orbit

Revolutions

≈ 16.0

Per day

Orbit

SSO

Sun Synchronous Orbit

Inclination

97.8

Latest

Satellite identification and parameters

Extended collection of information and parameters for TES.

Object identification

Identified? True

Debris? False

Object name: TES

International designator: 2001-049A

Object number (NORAD): 26957

Object ID (CCSDS): 26957

Country: INDIA (IND)

Current information (Y/N): Y

RCS size: LARGE

Orbital parameters

Period: 89.98 minutes

Inclination: 97.815 deg

SMA: 6651.575 km

Apoapsis: 278.773 km

Periapsis: 268.107 km

RAAN: 228.0843 deg

Eccentricy: 0.00080175

Argument of periapsis: 84.5934 deg

Mean anomaly: 275.6258 deg

Mean motion: 16.00353829 rev/day

Mean motion (dot): 0.00686922 rev/day2

B* drag term: 0.0013286114 1/REarth

Two-line elements (TLE)

Creation date: Dec. 12, 2025, 10:14 a.m.

Reference frame: TEME

Reference center: EARTH

Epoch: Dec. 12, 2025, 5:26 a.m. UTC

TLE line 0: 0 TES

TLE line 1: 1 26957U 01049A 25346.22647276 .00686922 21787-3 13286-2 0 9992

TLE line 2: 2 26957 97.8150 228.0843 0008017 84.5934 275.6258 16.00353829329418

Live tracking on map

Real-time ground track for satellite TES.

In-orbit conjunctions

There are no conjunctions computed for TES, at the moment. Check back to stay up to date, as we update our databases every day.

Go to all conjunctions

Associated space launch

Technology Experiment Satellite (TES) is Indian remote sensing and photo-reconnaissance satellite. The 1108 kg satellite carries a one-meter resolution panchromatic camera is an experimental satellite to demonstrate and validate, in orbit, technologies that could be used in the future satellites of Indian Space Research Organisation (ISRO). It was successfully placed in 572 km Sun-synchronous orbit on 22 October 2001 using the PSLV-C3. The PSLV-C3 also injected two more satellites: PROBA, a Belgian satellite and BIRD, a German satellite.

TES was lifted into orbit during the mission ‘PSLV | TES’, on board a PSLV space rocket.

The launch took place on Oct. 22, 2001, 4:53 a.m. from Satish Dhawan Space Centre First Launch Pad.

For more information about the launch, click the button.

Launch to space PSLV | TES
PSLV | TES

Agency: N/A

Status: Launch Successful

Launch date: Oct. 22, 2001, 4:53 a.m. UTC

Rocket: PSLV

Launch pad: Satish Dhawan Space Centre First Launch Pad

Location: Satish Dhawan Space Centre, India

...

Latest news about this satellite

News about space launch
Proba-1’s T-plus 23 years in orbit

Proba-1’s T-plus 23 years in orbit


Newsletter sign-up

Weekly statistics, charts and insights to help you stay on top of the space industry.